| time (UTC) | temp F | wind direction | speed knots | gust knots | rain 1hr in | rain 24hr in | rain mn in | humidity % | barometer mb |
| 20260507084830 | 50 | 282 | 0.9 | 2.6 | 0.01 | 0.22 | 0.03 | 78 | 1008.9 |
| 20260507084330 | 50 | 297 | 0.9 | 2.6 | 0.01 | 0.22 | 0.03 | 78 | 1008.7 |
| 20260507083829 | 50 | 302 | 0.9 | 2.6 | 0.01 | 0.22 | 0.03 | 78 | 1008.8 |
| 20260507083330 | 50 | 261 | 1.7 | 4.3 | 0.01 | 0.22 | 0.03 | 78 | 1008.8 |
| 20260507083106 | 50 | 64 | 1.7 | 4.3 | 0.01 | 0.22 | 0.03 | 78 | 1008.4 |
| 20260507082331 | 51 | 300 | 0.9 | 2.6 | 0.01 | 0.22 | 0.03 | 79 | 1008.5 |
| 20260507082105 | 51 | 276 | 0.0 | 2.6 | 0.01 | 0.22 | 0.03 | 79 | 1008.5 |
| 20260507081326 | 51 | 276 | 0.0 | 1.7 | 0.01 | 0.22 | 0.03 | 79 | 1008.6 |
| 20260507080825 | 51 | 276 | 0.0 | 1.7 | 0.01 | 0.22 | 0.03 | 79 | 1008.5 |
| 20260507080612 | 51 | 273 | 0.0 | 1.7 | 0.01 | 0.22 | 0.03 | 79 | 1008.4 |
| 20260507075819 | 51 | 272 | 0.0 | 1.7 | 0.01 | 0.22 | 0.03 | 79 | 1008.6 |
| 20260507075318 | 51 | 281 | 0.0 | 2.6 | 0.01 | 0.22 | 0.03 | 79 | 1008.8 |
| 20260507074818 | 51 | 289 | 0.0 | 2.6 | 0.00 | 0.21 | 0.02 | 79 | 1008.6 |
| 20260507074317 | 51 | 289 | 0.9 | 1.7 | 0.00 | 0.21 | 0.02 | 79 | 1008.8 |
| 20260507073815 | 51 | 289 | 0.0 | 1.7 | 0.00 | 0.21 | 0.02 | 79 | 1008.9 |
| 20260507073313 | 51 | 289 | 0.0 | 0.9 | 0.00 | 0.21 | 0.02 | 79 | 1008.8 |
| 20260507073048 | 51 | 289 | 0.0 | 0.9 | 0.00 | 0.21 | 0.02 | 79 | 1008.5 |
| 20260507072313 | 51 | 289 | 0.0 | 0.9 | 0.00 | 0.21 | 0.02 | 80 | 1008.2 |
| 20260507071813 | 51 | 289 | 0.0 | 0.9 | 0.00 | 0.21 | 0.02 | 80 | 1008.1 |
| 20260507071555 | 51 | 289 | 0.0 | 1.7 | 0.00 | 0.21 | 0.02 | 80 | 1008.0 |
| 20260507070811 | 51 | 289 | 0.0 | 1.7 | 0.00 | 0.21 | 0.02 | 80 | 1007.9 |
| 20260507070311 | 51 | 288 | 0.0 | 1.7 | 0.00 | 0.21 | 0.02 | 80 | 1008.1 |
| 20260507065810 | 51 | 289 | 0.9 | 2.6 | 0.00 | 0.21 | 0.02 | 80 | 1007.9 |
| 20260507065309 | 51 | 289 | 0.9 | 2.6 | 0.00 | 0.21 | 0.02 | 80 | 1007.8 |
| 20260507064804 | 51 | 289 | 0.9 | 2.6 | 0.00 | 0.21 | 0.02 | 81 | 1007.7 |
| 20260507064306 | 52 | 285 | 0.9 | 2.6 | 0.00 | 0.21 | 0.02 | 81 | 1007.9 |
| 20260507063759 | 52 | 284 | 0.9 | 2.6 | 0.00 | 0.21 | 0.02 | 81 | 1007.9 |
| 20260507063253 | 52 | 294 | 0.0 | 1.7 | 0.00 | 0.21 | 0.02 | 81 | 1007.8 |
| 20260507063028 | 52 | 294 | 0.9 | 3.5 | 0.00 | 0.21 | 0.02 | 82 | 1007.9 |
| 20260507062241 | 52 | 294 | 0.9 | 3.5 | 0.00 | 0.21 | 0.02 | 82 | 1007.8 |
| 20260507061735 | 52 | 306 | 0.9 | 3.5 | 0.00 | 0.21 | 0.02 | 82 | 1007.6 |
| 20260507061517 | 52 | 234 | 1.7 | 3.5 | 0.00 | 0.21 | 0.02 | 82 | 1007.7 |
| 20260507060723 | 52 | 281 | 1.7 | 3.5 | 0.00 | 0.21 | 0.02 | 82 | 1007.9 |
| 20260507060217 | 53 | 298 | 1.7 | 4.3 | 0.00 | 0.21 | 0.02 | 82 | 1007.8 |
| 20260507055711 | 53 | 298 | 1.7 | 4.3 | 0.00 | 0.21 | 0.02 | 82 | 1007.8 |
| 20260507055458 | 53 | 303 | 1.7 | 4.3 | 0.00 | 0.21 | 0.02 | 82 | 1008.0 |
| 20260507054951 | 53 | 305 | 1.7 | 3.5 | 0.00 | 0.21 | 0.02 | 83 | 1008.0 |
| 20260507054209 | 54 | 280 | 0.9 | 3.5 | 0.00 | 0.21 | 0.02 | 83 | 1008.2 |
| 20260507053708 | 54 | 275 | 0.9 | 1.7 | 0.00 | 0.21 | 0.02 | 83 | 1008.4 |
| 20260507053207 | 54 | 288 | 0.9 | 1.7 | 0.00 | 0.21 | 0.02 | 83 | 1008.2 |
| 20260507052707 | 54 | 288 | 0.9 | 4.3 | 0.00 | 0.21 | 0.02 | 83 | 1008.0 |
| 20260507052205 | 54 | 288 | 1.7 | 4.3 | 0.00 | 0.21 | 0.02 | 83 | 1008.2 |
| 20260507051706 | 54 | 346 | 1.7 | 4.3 | 0.01 | 0.21 | 0.02 | 83 | 1008.3 |
| 20260507051205 | 54 | 270 | 1.7 | 4.3 | 0.01 | 0.21 | 0.02 | 83 | 1008.3 |
| 20260507050708 | 54 | 299 | 1.7 | 4.3 | 0.01 | 0.21 | 0.02 | 83 | 1008.3 |
| 20260507050205 | 55 | 311 | 1.7 | 3.5 | 0.01 | 0.21 | 0.02 | 83 | 1008.1 |
| 20260507045942 | 55 | 326 | 1.7 | 3.5 | 0.02 | 0.21 | 0.02 | 83 | 1008.2 |
| 20260507045204 | 55 | 295 | 1.7 | 4.3 | 0.03 | 0.21 | 0.02 | 83 | 1008.3 |
| 20260507044705 | 56 | 296 | 1.7 | 4.3 | 0.03 | 0.21 | 0.02 | 83 | 1008.3 |
| 20260507044205 | 56 | 305 | 1.7 | 5.2 | 0.03 | 0.21 | 0.02 | 83 | 1008.1 |
| 20260507043941 | 56 | 281 | 0.9 | 5.2 | 0.03 | 0.21 | 0.02 | 83 | 1008.1 |
| 20260507043202 | 56 | 311 | 0.9 | 3.5 | 0.03 | 0.21 | 0.02 | 83 | 1008.0 |
| 20260507042703 | 56 | 311 | 1.7 | 3.5 | 0.03 | 0.21 | 0.02 | 83 | 1007.9 |
| 20260507042443 | 56 | 305 | 0.9 | 3.5 | 0.03 | 0.21 | 0.01 | 83 | 1008.0 |
| 20260507041652 | 56 | 314 | 0.9 | 3.5 | 0.02 | 0.20 | 0.01 | 83 | 1008.0 |
| 20260507041146 | 57 | 259 | 1.7 | 4.3 | 0.02 | 0.20 | 0.01 | 84 | 1008.1 |
| 20260507040640 | 57 | 322 | 2.6 | 6.1 | 0.02 | 0.20 | 0.01 | 84 | 1008.2 |
| 20260507040142 | 57 | 284 | 2.6 | 7.0 | 0.02 | 0.20 | 0.00 | 84 | 1008.1 |
| 20260507035636 | 57 | 266 | 2.6 | 7.0 | 0.01 | 0.19 | 0.19 | 84 | 1007.9 |
| 20260507035138 | 58 | 284 | 2.6 | 7.0 | 0.00 | 0.18 | 0.18 | 84 | 1007.9 |
| 20260507034639 | 58 | 264 | 1.7 | 3.5 | 0.00 | 0.18 | 0.18 | 84 | 1007.8 |
| 20260507034137 | 58 | 257 | 2.6 | 6.1 | 0.00 | 0.18 | 0.18 | 84 | 1007.6 |
| 20260507033637 | 59 | 263 | 2.6 | 6.1 | 0.00 | 0.18 | 0.18 | 84 | 1007.7 |
| 20260507033136 | 59 | 252 | 1.7 | 6.1 | 0.00 | 0.18 | 0.18 | 84 | 1007.7 |
| 20260507032631 | 60 | 276 | 1.7 | 6.1 | 0.00 | 0.18 | 0.18 | 85 | 1007.6 |
| 20260507032132 | 60 | 242 | 1.7 | 6.1 | 0.00 | 0.18 | 0.18 | 84 | 1007.3 |
| 20260507031629 | 60 | 302 | 1.7 | 4.3 | 0.00 | 0.18 | 0.18 | 84 | 1007.3 |
| 20260507031128 | 60 | 252 | 1.7 | 3.5 | 0.00 | 0.18 | 0.18 | 84 | 1007.1 |
| 20260507030627 | 60 | 205 | 1.7 | 7.0 | 0.00 | 0.18 | 0.18 | 84 | 1007.0 |
| 20260507030127 | 60 | 270 | 1.7 | 7.0 | 0.00 | 0.18 | 0.18 | 84 | 1006.9 |
| 20260507025628 | 60 | 224 | 2.6 | 9.6 | 0.00 | 0.18 | 0.18 | 84 | 1006.9 |
| 20260507025126 | 60 | 207 | 2.6 | 9.6 | 0.00 | 0.18 | 0.18 | 84 | 1006.9 |
| 20260507024631 | 60 | 220 | 2.6 | 8.7 | 0.00 | 0.18 | 0.18 | 84 | 1007.0 |
| 20260507024123 | 60 | 195 | 2.6 | 8.7 | 0.00 | 0.18 | 0.18 | 84 | 1007.0 |
| 20260507023621 | 60 | 157 | 3.5 | 7.0 | 0.00 | 0.18 | 0.18 | 84 | 1006.9 |
| 20260507023119 | 60 | 211 | 3.5 | 7.8 | 0.00 | 0.18 | 0.18 | 84 | 1007.0 |
| 20260507022621 | 59 | 212 | 4.3 | 8.7 | 0.00 | 0.18 | 0.18 | 84 | 1007.0 |
| 20260507022118 | 59 | 208 | 3.5 | 8.7 | 0.00 | 0.18 | 0.18 | 84 | 1006.9 |
| 20260507021616 | 59 | 222 | 3.5 | 7.0 | 0.00 | 0.18 | 0.18 | 84 | 1006.9 |
| 20260507021115 | 59 | 223 | 2.6 | 7.0 | 0.00 | 0.18 | 0.18 | 84 | 1006.8 |
| 20260507020615 | 59 | 192 | 1.7 | 5.2 | 0.00 | 0.18 | 0.18 | 84 | 1006.7 |
| 20260507020114 | 59 | 186 | 2.6 | 7.0 | 0.00 | 0.18 | 0.18 | 84 | 1006.8 |
| 20260507015613 | 59 | 161 | 3.5 | 7.0 | 0.00 | 0.18 | 0.18 | 84 | 1006.8 |
| 20260507015112 | 59 | 243 | 3.5 | 7.0 | 0.00 | 0.18 | 0.18 | 84 | 1007.0 |
| 20260507014612 | 59 | 203 | 3.5 | 7.0 | 0.00 | 0.18 | 0.18 | 84 | 1007.0 |
| 20260507014354 | 59 | 234 | 2.6 | 7.0 | 0.00 | 0.18 | 0.18 | 84 | 1007.1 |
| 20260507013610 | 59 | 224 | 2.6 | 6.1 | 0.00 | 0.18 | 0.18 | 84 | 1007.1 |
| 20260507013108 | 59 | 184 | 2.6 | 6.1 | 0.00 | 0.18 | 0.18 | 84 | 1007.0 |
| 20260507012606 | 59 | 211 | 2.6 | 6.1 | 0.00 | 0.18 | 0.18 | 83 | 1006.9 |
| 20260507012108 | 59 | 210 | 3.5 | 8.7 | 0.00 | 0.18 | 0.18 | 83 | 1007.1 |
| 20260507011603 | 59 | 213 | 3.5 | 8.7 | 0.00 | 0.18 | 0.18 | 83 | 1007.1 |
| 20260507011340 | 59 | 201 | 3.5 | 7.0 | 0.00 | 0.18 | 0.18 | 83 | 1007.0 |
| 20260507010814 | 59 | 212 | 3.5 | 9.6 | 0.00 | 0.18 | 0.18 | 83 | 1007.1 |
| 20260507010554 | 59 | 212 | 3.5 | 9.6 | 0.00 | 0.18 | 0.18 | 83 | 1007.1 |
| 20260507010116 | 59 | 149 | 2.6 | 9.6 | 0.00 | 0.18 | 0.18 | 83 | 1007.1 |
| 20260507005547 | 59 | 185 | 2.6 | 6.1 | 0.00 | 0.18 | 0.18 | 83 | 1007.0 |
| 20260507005045 | 60 | 207 | 3.5 | 7.0 | 0.00 | 0.18 | 0.18 | 83 | 1007.0 |
| 20260507004547 | 59 | 176 | 4.3 | 7.8 | 0.00 | 0.18 | 0.18 | 83 | 1006.9 |
| 20260507004040 | 60 | 147 | 3.5 | 7.8 | 0.00 | 0.18 | 0.18 | 82 | 1007.1 |
| 20260507003539 | 60 | 187 | 3.5 | 7.0 | 0.00 | 0.18 | 0.18 | 82 | 1007.0 |
| 20260507003321 | 60 | 143 | 2.6 | 6.1 | 0.00 | 0.18 | 0.18 | 82 | 1006.9 |
| 20260507002539 | 60 | 188 | 2.6 | 7.0 | 0.00 | 0.18 | 0.18 | 82 | 1006.9 |
| 20260507002038 | 60 | 194 | 2.6 | 7.0 | 0.01 | 0.18 | 0.18 | 82 | 1006.9 |
| 20260507001539 | 60 | 203 | 2.6 | 6.1 | 0.01 | 0.18 | 0.18 | 82 | 1007.0 |
| 20260507001038 | 60 | 172 | 3.5 | 8.7 | 0.02 | 0.18 | 0.18 | 82 | 1006.9 |
| 20260507000613 | 60 | 178 | 3.5 | 10.4 | 0.05 | 0.18 | 0.18 | 81 | 1006.8 |
| 20260507000603 | 60 | 228 | 2.6 | 8.7 | 0.04 | 0.18 | 0.18 | 82 | 1006.9 |
| 20260506235613 | 60 | 186 | 3.5 | 7.0 | 0.06 | 0.18 | 0.18 | 81 | 1006.8 |
| 20260506235601 | 60 | 182 | 3.5 | 10.4 | 0.05 | 0.18 | 0.18 | 81 | 1006.7 |
| 20260506234533 | 60 | 195 | 3.5 | 7.0 | 0.07 | 0.18 | 0.18 | 81 | 1006.8 |
| 20260506234033 | 60 | 204 | 3.5 | 6.1 | 0.07 | 0.18 | 0.18 | 81 | 1006.8 |
| 20260506233532 | 60 | 169 | 2.6 | 7.0 | 0.08 | 0.18 | 0.18 | 81 | 1006.7 |
| 20260506233032 | 60 | 199 | 3.5 | 9.6 | 0.09 | 0.18 | 0.18 | 81 | 1006.8 |
| 20260506232531 | 60 | 161 | 3.5 | 9.6 | 0.09 | 0.18 | 0.18 | 80 | 1006.7 |
| 20260506232031 | 60 | 226 | 3.5 | 9.6 | 0.08 | 0.17 | 0.17 | 80 | 1006.8 |
| 20260506231531 | 60 | 191 | 4.3 | 7.8 | 0.08 | 0.17 | 0.17 | 80 | 1006.8 |
| 20260506231034 | 60 | 134 | 3.5 | 8.7 | 0.07 | 0.16 | 0.15 | 80 | 1006.8 |
| 20260506230531 | 60 | 184 | 3.5 | 9.6 | 0.05 | 0.14 | 0.14 | 80 | 1006.9 |
| 20260506230037 | 60 | 220 | 3.5 | 9.6 | 0.04 | 0.13 | 0.13 | 79 | 1007.0 |
| 20260506225532 | 60 | 178 | 3.5 | 8.7 | 0.04 | 0.13 | 0.12 | 79 | 1007.1 |
| 20260506225032 | 60 | 182 | 4.3 | 8.7 | 0.04 | 0.12 | 0.12 | 79 | 1007.0 |
| 20260506224528 | 60 | 190 | 4.3 | 8.7 | 0.03 | 0.11 | 0.11 | 79 | 1007.1 |
| 20260506224028 | 60 | 213 | 4.3 | 12.2 | 0.03 | 0.11 | 0.11 | 79 | 1007.0 |
| 20260506223524 | 60 | 169 | 3.5 | 12.2 | 0.02 | 0.10 | 0.10 | 79 | 1007.1 |
| 20260506223023 | 60 | 182 | 3.5 | 7.0 | 0.01 | 0.09 | 0.09 | 79 | 1007.1 |
| 20260506222522 | 60 | 213 | 4.3 | 8.7 | 0.01 | 0.09 | 0.09 | 78 | 1007.2 |
| 20260506222023 | 60 | 177 | 5.2 | 9.6 | 0.01 | 0.09 | 0.09 | 78 | 1007.1 |
| 20260506221520 | 60 | 207 | 4.3 | 9.6 | 0.02 | 0.09 | 0.09 | 78 | 1007.2 |
| 20260506221021 | 60 | 227 | 4.3 | 11.3 | 0.02 | 0.09 | 0.09 | 78 | 1007.3 |
| 20260506220522 | 60 | 184 | 4.3 | 11.3 | 0.02 | 0.09 | 0.09 | 78 | 1007.4 |
| 20260506220021 | 61 | 195 | 3.5 | 7.8 | 0.02 | 0.09 | 0.09 | 78 | 1007.4 |
| 20260506215518 | 61 | 202 | 3.5 | 7.8 | 0.02 | 0.09 | 0.09 | 78 | 1007.4 |
| 20260506215018 | 61 | 172 | 2.6 | 6.1 | 0.02 | 0.08 | 0.08 | 77 | 1007.5 |
| 20260506214521 | 61 | 176 | 3.5 | 9.6 | 0.02 | 0.08 | 0.08 | 77 | 1007.4 |
| 20260506214022 | 61 | 194 | 4.3 | 9.6 | 0.02 | 0.08 | 0.08 | 77 | 1007.3 |
| 20260506213519 | 61 | 154 | 4.3 | 8.7 | 0.03 | 0.08 | 0.08 | 77 | 1007.5 |
| 20260506213018 | 61 | 182 | 3.5 | 7.8 | 0.03 | 0.08 | 0.08 | 77 | 1007.6 |
| 20260506212519 | 61 | 172 | 3.5 | 7.8 | 0.04 | 0.08 | 0.08 | 76 | 1007.7 |
| 20260506212301 | 61 | 195 | 3.5 | 7.8 | 0.04 | 0.08 | 0.08 | 76 | 1007.8 |
| 20260506211520 | 61 | 186 | 4.3 | 7.8 | 0.03 | 0.07 | 0.07 | 76 | 1007.8 |
| 20260506211018 | 61 | 178 | 3.5 | 8.7 | 0.04 | 0.07 | 0.07 | 75 | 1007.9 |
| 20260506210519 | 61 | 180 | 3.5 | 8.7 | 0.05 | 0.07 | 0.07 | 75 | 1007.8 |
| 20260506210020 | 61 | 206 | 4.3 | 10.4 | 0.05 | 0.07 | 0.07 | 75 | 1008.0 |
| 20260506205515 | 62 | 178 | 4.3 | 10.4 | 0.05 | 0.07 | 0.06 | 75 | 1008.1 |
| 20260506205016 | 62 | 169 | 3.5 | 9.6 | 0.04 | 0.06 | 0.06 | 74 | 1008.1 |
| 20260506204514 | 62 | 172 | 3.5 | 7.0 | 0.04 | 0.06 | 0.06 | 74 | 1008.0 |
| 20260506204016 | 62 | 176 | 3.5 | 7.0 | 0.04 | 0.06 | 0.06 | 74 | 1008.2 |
| 20260506203515 | 62 | 196 | 3.5 | 7.0 | 0.03 | 0.05 | 0.05 | 73 | 1008.2 |
| 20260506203017 | 62 | 185 | 3.5 | 12.2 | 0.04 | 0.05 | 0.05 | 73 | 1008.2 |
| 20260506202515 | 62 | 188 | 4.3 | 12.2 | 0.03 | 0.04 | 0.04 | 72 | 1008.1 |
| 20260506202013 | 62 | 198 | 5.2 | 13.9 | 0.03 | 0.04 | 0.04 | 72 | 1007.9 |
| 20260506201518 | 63 | 207 | 6.1 | 13.9 | 0.03 | 0.04 | 0.03 | 71 | 1007.9 |
| 20260506201252 | 63 | 230 | 5.2 | 14.8 | 0.03 | 0.03 | 0.03 | 70 | 1008.0 |
| 20260506200514 | 63 | 178 | 4.3 | 14.8 | 0.02 | 0.02 | 0.02 | 70 | 1008.0 |
| 20260506200015 | 64 | 205 | 3.5 | 10.4 | 0.02 | 0.02 | 0.02 | 70 | 1008.0 |
| 20260506195514 | 64 | 196 | 4.3 | 13.0 | 0.02 | 0.02 | 0.02 | 69 | 1008.1 |
| 20260506195018 | 64 | 180 | 5.2 | 13.0 | 0.02 | 0.02 | 0.02 | 69 | 1008.0 |
| 20260506194515 | 64 | 186 | 4.3 | 9.6 | 0.02 | 0.02 | 0.02 | 68 | 1008.0 |
| 20260506194015 | 65 | 168 | 3.5 | 9.6 | 0.02 | 0.02 | 0.02 | 68 | 1008.1 |
| 20260506193514 | 65 | 200 | 3.5 | 7.8 | 0.02 | 0.02 | 0.02 | 67 | 1008.1 |
| 20260506193013 | 65 | 190 | 3.5 | 7.8 | 0.01 | 0.01 | 0.01 | 66 | 1008.0 |
| 20260506192512 | 66 | 197 | 4.3 | 9.6 | 0.01 | 0.01 | 0.01 | 65 | 1007.9 |
| 20260506192254 | 66 | 207 | 4.3 | 10.4 | 0.01 | 0.01 | 0.01 | 64 | 1008.0 |
| 20260506191515 | 67 | 230 | 5.2 | 10.4 | 0.01 | 0.01 | 0.00 | 62 | 1007.9 |
| 20260506191012 | 67 | 206 | 4.3 | 9.6 | 0.00 | 0.00 | 0.00 | 61 | 1008.0 |
| 20260506190512 | 68 | 195 | 4.3 | 9.6 | 0.00 | 0.00 | 0.00 | 60 | 1008.0 |
| 20260506190010 | 69 | 196 | 5.2 | 10.4 | 0.00 | 0.00 | 0.00 | 59 | 1008.0 |
| 20260506185508 | 69 | 191 | 6.1 | 17.4 | 0.00 | 0.00 | 0.00 | 58 | 1008.1 |
| 20260506185007 | 69 | 184 | 7.0 | 17.4 | 0.00 | 0.00 | 0.00 | 57 | 1008.1 |
| 20260506184752 | 69 | 187 | 7.8 | 20.9 | 0.00 | 0.00 | 0.00 | 55 | 1008.2 |
| 20260506184005 | 70 | 243 | 8.7 | 20.9 | 0.00 | 0.00 | 0.00 | 55 | 1008.0 |
| 20260506183506 | 70 | 228 | 10.4 | 20.9 | 0.00 | 0.00 | 0.00 | 54 | 1008.0 |
| 20260506183005 | 71 | 245 | 11.3 | 20.9 | 0.00 | 0.00 | 0.00 | 52 | 1008.0 |
| 20260506182505 | 71 | 205 | 9.6 | 19.1 | 0.00 | 0.00 | 0.00 | 51 | 1008.0 |
| 20260506182242 | 72 | 190 | 7.8 | 20.0 | 0.00 | 0.00 | 0.00 | 49 | 1008.0 |
| 20260506181459 | 72 | 213 | 7.8 | 20.0 | 0.00 | 0.00 | 0.00 | 48 | 1008.0 |
| 20260506180949 | 72 | 224 | 9.6 | 20.0 | 0.00 | 0.00 | 0.00 | 48 | 1007.9 |
| 20260506180442 | 72 | 246 | 7.0 | 20.0 | 0.00 | 0.00 | 0.00 | 48 | 1008.1 |
| 20260506175937 | 72 | 164 | 7.8 | 21.7 | 0.00 | 0.00 | 0.00 | 48 | 1008.1 |
| 20260506175437 | 73 | 220 | 7.0 | 21.7 | 0.00 | 0.00 | 0.00 | 47 | 1008.2 |
| 20260506175217 | 73 | 164 | 6.1 | 20.0 | 0.00 | 0.00 | 0.00 | 47 | 1008.3 |
| 20260506174434 | 73 | 177 | 7.0 | 16.5 | 0.00 | 0.00 | 0.00 | 47 | 1008.3 |
| 20260506173932 | 73 | 218 | 7.0 | 15.6 | 0.00 | 0.00 | 0.00 | 47 | 1008.3 |
| 20260506173432 | 73 | 238 | 6.1 | 15.6 | 0.00 | 0.00 | 0.00 | 48 | 1008.3 |
| 20260506172931 | 73 | 181 | 7.0 | 21.7 | 0.00 | 0.00 | 0.00 | 47 | 1008.3 |
| 20260506172431 | 73 | 224 | 7.8 | 21.7 | 0.00 | 0.00 | 0.00 | 47 | 1008.3 |
| 20260506171935 | 73 | 218 | 7.0 | 18.2 | 0.00 | 0.00 | 0.00 | 48 | 1008.2 |
| 20260506171434 | 73 | 209 | 7.0 | 18.2 | 0.00 | 0.00 | 0.00 | 48 | 1008.3 |
| 20260506170932 | 73 | 193 | 7.8 | 18.2 | 0.00 | 0.00 | 0.00 | 49 | 1008.4 |
| 20260506170433 | 73 | 168 | 7.8 | 18.2 | 0.00 | 0.00 | 0.00 | 49 | 1008.4 |
| 20260506165931 | 73 | 191 | 7.0 | 18.2 | 0.00 | 0.00 | 0.00 | 49 | 1008.4 |
| 20260506165430 | 72 | 170 | 6.1 | 13.9 | 0.00 | 0.00 | 0.00 | 50 | 1008.5 |
| 20260506164938 | 72 | 207 | 7.0 | 14.8 | 0.00 | 0.00 | 0.00 | 50 | 1008.6 |
| 20260506164430 | 72 | 167 | 7.0 | 14.8 | 0.00 | 0.00 | 0.00 | 50 | 1008.7 |
| 20260506163931 | 72 | 195 | 6.1 | 12.2 | 0.00 | 0.00 | 0.00 | 50 | 1008.7 |
| 20260506163423 | 72 | 222 | 7.0 | 17.4 | 0.00 | 0.00 | 0.00 | 50 | 1008.8 |
| 20260506162917 | 72 | 192 | 6.1 | 17.4 | 0.00 | 0.00 | 0.00 | 50 | 1008.9 |
| 20260506162419 | 72 | 171 | 6.1 | 15.6 | 0.00 | 0.00 | 0.00 | 50 | 1008.8 |
| 20260506161916 | 72 | 213 | 7.0 | 15.6 | 0.00 | 0.00 | 0.00 | 50 | 1008.9 |
| 20260506161416 | 72 | 213 | 7.0 | 15.6 | 0.00 | 0.00 | 0.00 | 49 | 1009.1 |
| 20260506160915 | 72 | 199 | 7.0 | 13.9 | 0.00 | 0.00 | 0.00 | 50 | 1009.2 |
| 20260506160804 | 72 | 220 | 7.0 | 15.6 | 0.00 | 0.00 | 0.00 | 50 | 1009.4 |
| 20260506160457 | 72 | 233 | 7.0 | 13.9 | 0.00 | 0.00 | 0.00 | 50 | 1009.4 |
| 20260506155414 | 72 | 263 | 7.8 | 15.6 | 0.00 | 0.00 | 0.00 | 50 | 1009.6 |
| 20260506154907 | 72 | 218 | 8.7 | 18.2 | 0.00 | 0.00 | 0.00 | 50 | 1009.7 |
| 20260506154741 | 72 | 227 | 5.2 | 12.2 | 0.00 | 0.00 | 0.00 | 51 | 1009.8 |
| 20260506154444 | 72 | 212 | 7.0 | 18.2 | 0.00 | 0.00 | 0.00 | 50 | 1009.7 |
| 20260506153409 | 72 | 224 | 6.1 | 13.0 | 0.00 | 0.00 | 0.00 | 51 | 1010.0 |
| 20260506152906 | 72 | 166 | 7.0 | 15.6 | 0.00 | 0.00 | 0.00 | 52 | 1010.0 |
| 20260506152412 | 72 | 227 | 7.0 | 15.6 | 0.00 | 0.00 | 0.00 | 51 | 1009.9 |
| 20260506151903 | 72 | 249 | 5.2 | 13.9 | 0.00 | 0.00 | 0.00 | 52 | 1010.2 |
| 20260506151409 | 72 | 220 | 4.3 | 11.3 | 0.00 | 0.00 | 0.00 | 52 | 1010.2 |
| 20260506150905 | 72 | 230 | 5.2 | 11.3 | 0.00 | 0.00 | 0.00 | 52 | 1010.2 |
| 20260506150402 | 72 | 182 | 6.1 | 13.0 | 0.00 | 0.00 | 0.00 | 53 | 1010.2 |
| 20260506145904 | 71 | 211 | 6.1 | 13.0 | 0.00 | 0.00 | 0.00 | 53 | 1010.3 |
| 20260506145657 | 71 | 176 | 6.1 | 13.0 | 0.00 | 0.00 | 0.00 | 53 | 1010.4 |
| 20260506144900 | 71 | 203 | 6.1 | 13.0 | 0.00 | 0.00 | 0.00 | 54 | 1010.4 |
| 20260506144641 | 71 | 173 | 6.1 | 13.0 | 0.00 | 0.00 | 0.00 | 54 | 1010.3 |
| 20260506143850 | 71 | 185 | 6.1 | 13.0 | 0.00 | 0.00 | 0.00 | 54 | 1010.3 |
| 20260506143344 | 70 | 204 | 6.1 | 13.0 | 0.00 | 0.00 | 0.00 | 55 | 1010.2 |
| 20260506142840 | 70 | 193 | 6.1 | 12.2 | 0.00 | 0.00 | 0.00 | 55 | 1010.2 |
| 20260506142340 | 70 | 172 | 6.1 | 17.4 | 0.00 | 0.00 | 0.00 | 55 | 1010.2 |
| 20260506141837 | 70 | 237 | 5.2 | 17.4 | 0.00 | 0.00 | 0.00 | 56 | 1010.0 |
| 20260506141339 | 70 | 169 | 5.2 | 9.6 | 0.00 | 0.00 | 0.00 | 56 | 1010.0 |
| 20260506140837 | 69 | 157 | 5.2 | 10.4 | 0.00 | 0.00 | 0.00 | 57 | 1010.0 |
| 20260506140336 | 69 | 185 | 5.2 | 13.0 | 0.00 | 0.00 | 0.00 | 57 | 1010.2 |
| 20260506135836 | 69 | 150 | 5.2 | 13.0 | 0.00 | 0.00 | 0.00 | 58 | 1010.0 |
| 20260506135336 | 68 | 193 | 3.5 | 12.2 | 0.00 | 0.00 | 0.00 | 59 | 1010.1 |
| 20260506134833 | 68 | 168 | 2.6 | 10.4 | 0.00 | 0.00 | 0.00 | 60 | 1010.1 |
| 20260506134337 | 67 | 249 | 3.5 | 10.4 | 0.00 | 0.00 | 0.00 | 60 | 1010.3 |
| 20260506133833 | 67 | 178 | 4.3 | 13.0 | 0.00 | 0.00 | 0.00 | 60 | 1010.3 |
| 20260506133330 | 67 | 151 | 4.3 | 13.0 | 0.00 | 0.00 | 0.00 | 60 | 1010.5 |
| 20260506132830 | 66 | 157 | 5.2 | 10.4 | 0.00 | 0.00 | 0.00 | 61 | 1010.6 |
| 20260506132330 | 66 | 227 | 5.2 | 10.4 | 0.00 | 0.00 | 0.00 | 61 | 1010.6 |
| 20260506131829 | 66 | 153 | 5.2 | 10.4 | 0.00 | 0.00 | 0.00 | 61 | 1010.7 |
| 20260506131327 | 66 | 212 | 4.3 | 10.4 | 0.00 | 0.00 | 0.00 | 61 | 1010.7 |
| 20260506130827 | 66 | 191 | 4.3 | 8.7 | 0.00 | 0.00 | 0.00 | 61 | 1010.6 |
| 20260506130329 | 65 | 207 | 4.3 | 11.3 | 0.00 | 0.00 | 0.00 | 61 | 1010.5 |
| 20260506130108 | 65 | 179 | 5.2 | 11.3 | 0.00 | 0.00 | 0.00 | 61 | 1010.5 |
| 20260506125319 | 65 | 183 | 5.2 | 12.2 | 0.00 | 0.00 | 0.00 | 61 | 1010.7 |
| 20260506124820 | 65 | 191 | 6.1 | 15.6 | 0.00 | 0.00 | 0.00 | 61 | 1010.6 |
| 20260506124319 | 65 | 194 | 7.0 | 15.6 | 0.00 | 0.00 | 0.00 | 62 | 1010.5 |
| 20260506123819 | 65 | 177 | 7.0 | 15.6 | 0.00 | 0.00 | 0.00 | 62 | 1010.5 |
| 20260506123322 | 65 | 180 | 7.0 | 13.9 | 0.00 | 0.00 | 0.00 | 62 | 1010.6 |
| 20260506122819 | 65 | 181 | 6.1 | 12.2 | 0.00 | 0.00 | 0.00 | 62 | 1010.6 |
| 20260506122319 | 65 | 151 | 5.2 | 12.2 | 0.00 | 0.00 | 0.00 | 62 | 1010.8 |
| 20260506122103 | 65 | 206 | 5.2 | 13.0 | 0.00 | 0.00 | 0.00 | 62 | 1010.7 |
| 20260506121319 | 65 | 205 | 5.2 | 13.0 | 0.00 | 0.00 | 0.00 | 62 | 1010.6 |
| 20260506120821 | 64 | 201 | 5.2 | 11.3 | 0.00 | 0.00 | 0.00 | 64 | 1010.6 |
| 20260506120321 | 64 | 200 | 6.1 | 11.3 | 0.00 | 0.00 | 0.00 | 63 | 1010.5 |
| 20260506115819 | 63 | 199 | 6.1 | 11.3 | 0.00 | 0.00 | 0.00 | 64 | 1010.7 |
| 20260506115321 | 63 | 204 | 6.1 | 12.2 | 0.00 | 0.00 | 0.00 | 64 | 1010.8 |
| 20260506114820 | 63 | 221 | 5.2 | 12.2 | 0.00 | 0.00 | 0.00 | 64 | 1010.8 |
| 20260506114319 | 63 | 211 | 5.2 | 13.0 | 0.00 | 0.00 | 0.00 | 64 | 1010.8 |
| 20260506113821 | 63 | 165 | 5.2 | 13.0 | 0.00 | 0.00 | 0.00 | 64 | 1010.8 |
| 20260506113319 | 63 | 187 | 5.2 | 10.4 | 0.00 | 0.00 | 0.00 | 64 | 1011.0 |
| 20260506112822 | 63 | 247 | 5.2 | 15.6 | 0.00 | 0.00 | 0.00 | 64 | 1011.2 |
| 20260506112322 | 63 | 161 | 5.2 | 15.6 | 0.00 | 0.00 | 0.00 | 64 | 1011.2 |
| 20260506111818 | 63 | 182 | 4.3 | 13.0 | 0.00 | 0.00 | 0.00 | 64 | 1011.1 |
| 20260506111320 | 63 | 220 | 5.2 | 13.0 | 0.00 | 0.00 | 0.00 | 65 | 1010.9 |
| 20260506110820 | 62 | 190 | 4.3 | 11.3 | 0.00 | 0.00 | 0.00 | 65 | 1010.9 |
| 20260506110321 | 62 | 202 | 4.3 | 11.3 | 0.00 | 0.00 | 0.00 | 66 | 1010.8 |
| 20260506105820 | 62 | 216 | 4.3 | 11.3 | 0.00 | 0.00 | 0.00 | 66 | 1011.0 |
| 20260506105320 | 61 | 215 | 4.3 | 8.7 | 0.00 | 0.00 | 0.00 | 66 | 1011.0 |
| 20260506104825 | 61 | 186 | 4.3 | 10.4 | 0.00 | 0.00 | 0.00 | 66 | 1011.1 |
| 20260506104318 | 61 | 166 | 3.5 | 10.4 | 0.00 | 0.00 | 0.00 | 66 | 1011.0 |
| 20260506103818 | 61 | 134 | 3.5 | 7.8 | 0.00 | 0.00 | 0.00 | 66 | 1011.0 |
| 20260506103321 | 61 | 197 | 2.6 | 7.8 | 0.00 | 0.00 | 0.00 | 66 | 1010.9 |
| 20260506102823 | 61 | 189 | 3.5 | 7.8 | 0.00 | 0.00 | 0.00 | 65 | 1010.9 |
| 20260506102339 | 61 | 219 | 3.5 | 7.8 | 0.00 | 0.00 | 0.00 | 65 | 1010.9 |
| 20260506102331 | 61 | 232 | 3.5 | 7.8 | 0.00 | 0.00 | 0.00 | 65 | 1011.0 |
| 20260506101317 | 61 | 186 | 3.5 | 7.8 | 0.00 | 0.00 | 0.00 | 65 | 1011.0 |
| 20260506100820 | 61 | 205 | 3.5 | 8.7 | 0.00 | 0.00 | 0.00 | 65 | 1010.9 |
| 20260506100559 | 61 | 176 | 3.5 | 8.7 | 0.00 | 0.00 | 0.00 | 65 | 1010.8 |
| 20260506095816 | 61 | 203 | 2.6 | 7.8 | 0.00 | 0.00 | 0.00 | 65 | 1010.9 |
| 20260506095314 | 61 | 210 | 2.6 | 7.8 | 0.00 | 0.00 | 0.00 | 65 | 1011.0 |
| 20260506094813 | 61 | 194 | 2.6 | 6.1 | 0.00 | 0.00 | 0.00 | 65 | 1010.8 |
| 20260506094313 | 61 | 159 | 2.6 | 6.1 | 0.00 | 0.00 | 0.00 | 64 | 1010.7 |
| 20260506093812 | 61 | 164 | 2.6 | 7.0 | 0.00 | 0.00 | 0.00 | 64 | 1010.6 |
| 20260506093312 | 61 | 181 | 3.5 | 7.0 | 0.00 | 0.00 | 0.00 | 64 | 1010.8 |
| 20260506092813 | 61 | 166 | 3.5 | 7.0 | 0.00 | 0.00 | 0.00 | 64 | 1010.8 |
| 20260506092557 | 61 | 183 | 4.3 | 9.6 | 0.00 | 0.00 | 0.00 | 64 | 1011.0 |
| 20260506091808 | 61 | 157 | 4.3 | 9.6 | 0.00 | 0.00 | 0.00 | 63 | 1010.9 |
| 20260506091307 | 61 | 184 | 3.5 | 7.8 | 0.00 | 0.00 | 0.00 | 63 | 1010.8 |
| 20260506090806 | 62 | 169 | 3.5 | 8.7 | 0.00 | 0.00 | 0.00 | 63 | 1010.9 |
| 20260506090302 | 62 | 186 | 3.5 | 8.7 | 0.00 | 0.00 | 0.00 | 63 | 1010.8 |